CAPE
nan nan nan nan nan nan nan nan nan nan nan nan nan nan nan nan nan nan nan nan nan nan nan nan nan nan nan nan nan nan nan nan nan nan 1 3 6 6 7 8 8 8 9 9 9 10 12 13 13 15 18 21 25 25 31 35 35 39 42 43 43 43 42 42 42 40 37 36 35 35 31 26 18 18 10 6 6 6 6 8 8 10 14 19 19 27
nan nan nan nan nan nan nan nan nan nan nan nan nan nan nan nan nan nan nan nan nan nan nan nan nan nan nan nan nan nan nan nan nan nan 0 2 4 4 5 5 5 6 7 8 8 8 10 11 11 13 15 17 21 21 26 30 30 33 35 39 39 38 38 39 39 36 34 34 33 33 31 25 20 20 15 13 12 12 10 10 10 11 13 19 19 26
nan nan nan nan nan nan nan nan nan nan nan nan nan nan nan nan nan nan nan nan nan nan nan nan nan nan nan nan nan nan nan nan nan nan 0 1 2 2 2 3 3 4 5 7 7 8 9 11 11 12 13 17 20 20 22 26 26 28 29 31 31 31 31 31 31 30 28 27 26 26 26 24 22 22 23 22 21 21 17 13 13 12 14 19 19 26
nan nan nan nan nan nan nan nan nan nan nan nan nan nan nan nan nan nan nan nan nan nan nan nan nan nan nan nan nan nan nan nan nan nan nan 0 0 0 0 1 1 2 4 5 5 7 8 9 9 11 14 15 18 18 20 23 23 23 24 25 25 24 24 24 24 23 20 20 20 20 21 22 26 26 27 27 25 25 20 17 17 17 18 22 22 27
nan nan nan nan nan nan nan nan nan nan nan nan nan nan nan nan nan nan nan nan nan nan nan nan nan nan nan nan nan nan nan nan nan nan nan nan nan nan 0 1 1 2 3 5 5 6 7 9 9 10 12 14 16 16 17 18 18 19 20 21 21 22 21 21 21 19 17 16 18 18 22 24 27 27 27 30 29 29 28 26 26 25 24 26 26 32
nan nan nan nan nan nan nan nan nan nan nan nan nan nan nan nan nan nan nan nan nan nan nan nan nan nan nan nan nan nan nan nan nan nan nan nan nan nan nan 0 0 2 3 5 5 5 6 7 7 10 11 12 13 13 15 15 15 17 17 18 18 20 19 19 19 19 18 18 20 20 21 24 25 25 26 31 33 33 36 38 38 36 33 34 34 40
nan nan nan nan nan nan nan nan nan nan nan nan nan nan nan nan nan nan nan nan nan nan nan nan nan nan nan nan nan nan nan nan nan nan nan nan nan nan nan 1 1 3 4 4 4 4 5 6 6 8 9 9 10 10 12 13 13 13 14 14 14 16 18 19 19 21 21 20 21 21 23 23 25 25 27 31 35 35 41 45 45 45 42 42 42 47
nan nan nan nan nan nan nan nan nan nan nan nan nan nan nan nan nan nan nan nan nan nan nan nan nan nan nan nan nan nan nan nan nan nan nan nan nan nan 0 3 3 2 1 1 1 1 1 2 2 3 2 3 5 5 6 7 7 7 9 10 10 14 19 23 23 25 28 28 29 29 30 29 29 29 28 28 30 30 37 45 45 51 49 50 50 50
nan nan nan nan nan nan nan nan nan nan nan nan nan nan nan nan nan nan nan nan nan nan nan nan nan nan nan nan nan nan nan nan nan nan nan nan nan nan nan 1 1 1 1 0 0 0 0 0 0 0 1 1 3 3 4 4 4 6 8 12 12 16 21 24 24 26 31 31 35 35 37 35 33 33 30 31 31 31 33 38 38 46 50 50 50 52
nan nan nan nan nan nan nan nan nan nan nan nan nan nan nan nan nan nan nan nan nan nan nan nan nan nan nan nan nan nan nan nan nan nan nan nan 0 0 nan nan nan nan nan nan nan nan nan nan nan nan 0 0 1 1 3 3 3 5 7 12 12 17 23 25 25 28 30 34 38 38 41 39 37 37 35 34 34 34 35 35 35 39 45 49 49 52
nan nan nan nan nan nan nan nan nan nan nan nan nan nan nan nan nan nan nan nan nan nan nan nan nan nan nan nan nan nan nan nan nan nan nan nan nan nan nan nan nan nan nan nan nan nan nan nan nan nan nan 0 1 1 2 2 2 5 7 11 11 17 22 24 24 26 31 33 37 37 43 45 42 42 39 39 38 38 35 34 34 34 38 44 44 52
nan nan nan nan nan nan nan nan nan nan nan nan nan nan nan nan nan nan nan nan nan nan nan nan nan nan nan nan nan nan nan nan nan nan nan nan nan nan nan nan nan nan nan nan nan nan nan nan nan nan nan nan 1 1 1 1 1 6 8 12 12 17 20 22 22 24 28 31 34 34 40 42 40 40 43 42 38 38 37 34 34 32 33 39 39 47
nan nan nan nan nan nan nan nan nan nan nan nan nan nan nan nan nan nan nan nan nan nan nan nan nan nan nan nan nan nan nan nan nan nan nan nan nan nan nan nan nan nan nan nan nan nan nan nan nan nan nan nan 2 2 3 3 3 5 8 11 11 16 19 21 21 23 26 28 30 30 34 36 39 39 39 39 37 37 38 33 33 36 33 37 37 42
nan nan nan nan nan nan nan nan nan nan nan nan nan nan nan nan nan nan nan nan nan nan nan nan nan nan nan nan nan nan nan nan nan nan nan nan nan nan nan nan nan nan nan nan nan nan nan nan nan nan nan nan 0 0 1 4 4 6 8 10 10 14 17 20 20 21 25 25 27 27 29 32 34 34 34 38 38 38 37 36 36 36 36 36 36 42
nan nan nan nan nan nan nan nan nan nan nan nan nan nan nan nan nan nan nan nan nan nan nan nan nan nan nan nan nan nan nan nan nan nan nan nan nan nan nan nan nan nan nan nan nan nan nan nan nan nan nan nan nan nan nan 1 1 6 6 8 8 11 15 18 18 23 23 24 26 26 26 28 32 32 34 37 36 36 38 40 40 38 39 41 41 41
nan nan nan nan nan nan nan nan nan nan nan nan nan nan nan nan nan nan nan nan nan nan nan nan nan nan nan nan nan nan nan nan nan nan nan nan nan nan nan nan nan nan nan nan nan nan nan nan nan nan nan nan 0 0 1 2 2 5 6 8 8 11 13 16 16 20 23 25 27 27 28 28 30 30 32 35 37 37 40 39 39 39 41 44 44 43
nan nan nan nan nan nan nan nan nan nan nan nan nan nan nan nan nan nan nan nan nan nan nan nan nan nan nan nan nan nan nan nan nan nan nan nan nan nan nan nan nan nan nan nan nan nan nan nan nan nan nan nan 1 1 1 2 2 4 6 9 9 12 12 14 14 17 17 20 25 25 27 27 28 28 29 31 33 33 35 40 40 41 41 45 45 46
nan nan nan nan nan nan nan nan nan nan nan nan nan nan nan nan nan nan nan nan nan nan nan nan nan nan nan nan nan nan nan nan nan nan nan nan nan nan nan nan nan nan nan nan nan nan nan nan nan nan nan 0 1 1 1 2 2 5 7 9 9 10 11 12 12 14 15 18 21 21 26 28 28 28 27 27 29 29 30 33 33 36 39 42 42 43
nan nan nan nan nan nan nan nan nan nan nan nan nan nan nan nan nan nan nan nan nan nan nan nan nan nan nan nan nan nan nan nan nan nan nan nan nan nan nan nan nan nan nan nan nan nan nan nan nan nan nan 0 1 1 1 3 3 6 8 9 9 9 9 10 10 11 14 16 21 21 24 28 27 27 26 25 26 26 28 31 31 33 35 36 36 40
nan nan nan nan nan nan nan nan nan nan nan nan nan nan nan nan nan nan nan nan nan nan nan nan nan nan nan nan nan nan nan nan nan nan nan nan nan nan nan nan nan nan nan nan nan nan nan nan nan nan nan nan 1 1 2 4 4 6 7 7 7 7 6 8 8 10 13 18 21 21 24 27 26 26 25 25 25 25 28 28 28 31 32 33 33 36
nan nan nan nan nan nan nan nan nan nan nan nan nan nan nan nan nan nan nan nan nan nan nan nan nan nan nan nan nan nan nan nan nan nan nan nan nan nan nan nan nan nan nan nan nan nan nan nan nan nan nan 0 2 2 3 4 4 4 5 5 5 4 6 7 7 10 14 19 20 20 23 24 25 25 25 25 26 26 27 28 28 29 30 32 32 33
nan nan nan nan nan nan nan nan nan nan nan nan nan nan nan 0 0 0 0 0 0 1 1 nan nan nan nan nan nan nan nan nan nan nan nan nan nan nan nan nan nan nan nan nan nan nan nan nan nan nan nan 1 2 2 2 3 3 3 3 3 3 3 5 8 8 12 14 16 19 19 19 20 21 21 21 23 24 24 27 29 29 29 32 31 31 33
nan nan nan nan nan nan nan nan nan nan nan nan nan nan nan nan 0 0 nan 0 0 1 1 1 1 0 0 nan nan nan nan nan nan nan nan nan nan nan nan nan nan nan nan nan nan nan nan nan nan nan nan 2 1 1 1 1 1 1 1 2 2 4 6 8 8 10 13 12 14 14 14 15 16 16 18 20 21 21 22 24 24 29 30 33 33 34
nan nan nan nan nan nan nan nan nan nan nan nan nan nan nan nan nan nan nan 0 0 1 3 2 2 1 0 nan nan nan nan nan nan nan nan nan nan nan nan nan nan nan nan nan nan nan nan nan nan nan nan nan 0 0 0 0 0 1 1 3 3 4 6 7 7 8 9 10 10 10 12 12 14 14 15 18 19 19 20 21 21 24 23 27 27 29
nan nan nan nan nan nan nan nan nan nan nan nan nan nan nan nan 3 3 2 1 1 1 2 1 1 1 nan 1 nan nan nan nan nan nan nan nan nan nan nan nan nan nan nan nan nan nan nan nan nan nan nan nan nan nan 0 0 0 0 2 3 3 4 6 7 7 7 7 7 8 8 9 11 13 13 15 17 18 18 20 22 22 21 23 22 22 23
nan nan nan nan nan 5 15 27 28 28 22 4 0 0 nan 2 1 1 nan nan nan 0 1 0 0 0 nan nan nan nan nan nan nan nan nan nan nan nan nan nan nan nan nan nan nan nan nan nan nan nan nan nan nan nan nan 0 0 1 2 3 3 4 5 4 4 5 5 6 7 7 9 12 13 13 15 17 19 19 20 20 20 20 21 22 22 22
14 14 19 21 21 23 23 22 24 24 30 25 7 7 2 0 nan nan nan nan nan 0 1 0 0 nan nan nan nan nan nan nan nan nan nan nan nan nan nan nan nan nan nan nan nan nan nan nan nan nan nan nan nan nan nan 0 0 1 2 2 2 3 3 4 4 4 5 7 8 8 10 12 14 14 16 17 18 18 20 21 21 22 22 20 20 22
8 7 7 7 7 8 9 11 15 15 18 23 29 29 15 nan nan nan nan nan nan nan 1 nan nan nan nan nan nan nan nan nan nan nan nan nan nan nan nan nan nan nan nan nan nan nan nan nan nan nan nan nan nan nan nan 1 1 1 1 1 1 2 2 3 3 4 6 7 9 9 11 14 15 15 17 17 18 18 19 20 20 21 23 16 16 3
3 2 1 1 1 2 4 7 8 8 10 14 20 20 12 nan nan nan nan nan nan 1 2 1 1 0 nan nan nan nan nan nan nan nan nan nan nan nan nan nan nan nan nan nan nan nan nan nan nan nan nan nan nan nan nan nan nan 0 1 1 1 1 2 3 3 5 6 8 11 11 12 14 15 15 15 16 18 18 19 21 21 22 17 7 7 1
nan nan nan 1 1 1 1 nan 2 2 7 11 16 16 12 0 nan nan nan nan nan 1 2 1 1 0 0 nan nan nan nan nan nan nan nan nan nan nan nan nan nan nan nan nan nan nan nan nan nan nan nan nan nan nan nan nan nan nan nan 1 1 1 3 4 4 6 8 9 11 11 13 14 15 15 16 16 17 17 18 21 21 19 6 0 0 0
nan nan nan nan nan nan nan nan nan nan 11 14 12 12 5 nan nan nan nan nan nan nan 0 0 0 0 0 nan nan nan nan nan nan nan nan nan nan nan nan nan nan nan nan nan nan nan nan nan nan nan nan nan nan nan nan nan nan nan nan nan nan nan 2 5 5 7 8 9 10 10 11 13 14 14 14 15 17 17 18 21 21 17 3 2 2 1
nan nan nan nan nan nan nan nan nan nan nan nan nan nan 1 1 0 0 nan nan nan nan nan nan nan 0 0 1 nan nan nan nan nan nan nan nan nan nan nan nan nan nan nan 0 0 nan nan nan nan nan nan nan nan nan nan nan nan nan nan nan nan nan nan 2 2 2 2 6 8 8 8 8 8 8 8 10 12 12 14 16 16 17 3 0 0 2
nan nan nan nan nan nan nan nan nan nan nan nan nan nan nan nan 2 2 0 nan nan nan nan nan nan 0 0 0 nan nan nan nan 0 0 3 nan nan nan nan nan nan 0 nan nan nan nan nan nan nan nan nan nan nan nan nan nan nan nan nan nan nan nan nan nan nan nan nan 0 1 1 5 5 6 6 7 7 9 9 11 14 14 17 17 1 1 3
nan nan nan nan nan nan nan nan nan nan nan nan nan nan nan nan 0 0 0 nan nan nan nan nan nan nan nan 0 0 0 nan nan 1 1 3 nan nan nan nan nan nan nan nan nan nan nan nan nan nan nan nan nan nan nan nan nan nan nan nan nan nan nan nan nan nan nan nan nan nan nan nan nan 2 2 3 5 7 7 11 16 16 20 26 17 17 10
nan nan nan nan nan nan nan nan nan nan nan nan nan nan nan nan nan nan nan nan nan nan nan nan nan nan nan nan nan nan nan nan nan nan 6 0 0 0 0 0 0 nan nan nan nan nan nan nan nan 0 nan nan nan nan nan nan nan nan nan nan nan nan nan nan nan nan nan nan nan nan nan nan nan nan nan 2 7 7 13 17 17 20 24 28 28 20
nan nan nan nan nan nan nan nan nan nan 0 nan nan nan nan nan nan nan nan nan nan nan nan nan nan nan nan nan nan nan nan nan nan nan 7 1 0 0 nan nan nan 0 nan nan nan nan nan nan nan 1 1 nan nan nan nan nan nan nan nan nan nan nan nan nan nan nan nan nan nan nan nan nan nan nan nan 5 10 10 14 13 13 15 16 19 19 19
nan nan nan nan nan nan nan nan nan nan nan nan nan nan nan nan nan nan nan nan nan nan nan nan nan nan 1 nan nan nan nan nan nan nan 0 nan nan nan nan nan nan 2 0 nan nan nan nan nan nan 0 nan nan nan nan nan nan nan nan nan nan nan nan nan nan nan nan nan nan nan nan nan nan nan nan nan 6 6 6 8 12 12 10 13 15 15 21
nan nan nan nan nan nan nan nan nan nan nan nan nan nan nan nan nan nan nan nan nan nan nan nan nan nan 1 4 nan nan nan nan nan nan nan nan nan nan nan nan nan 1 1 0 0 nan nan nan nan nan nan nan nan nan nan nan nan nan nan nan nan nan nan nan nan nan nan nan nan nan nan nan nan nan nan nan nan nan nan nan nan 1 10 12 12 18
nan nan nan 0 0 nan nan nan nan nan nan nan nan nan nan nan nan nan nan nan nan nan nan nan nan nan nan nan 0 0 1 nan nan nan nan nan nan nan nan nan nan nan nan 0 0 nan nan nan nan nan nan nan nan nan nan nan nan nan nan nan nan nan nan nan nan nan nan nan nan nan nan nan nan nan nan nan nan nan nan nan nan nan nan nan nan 4
nan nan nan nan nan nan nan nan nan nan nan nan 0 0 0 0 nan nan nan nan nan nan nan nan nan nan nan nan nan nan nan nan nan nan nan nan nan nan nan nan nan nan nan nan nan nan nan nan nan nan nan nan nan nan nan nan nan nan 0 nan nan nan nan nan nan nan nan nan nan nan nan nan nan nan nan nan nan nan nan nan nan nan nan nan nan nan
0 nan nan nan nan nan nan nan nan nan nan nan nan nan nan nan nan nan nan nan nan nan nan nan nan nan nan nan nan nan nan nan nan nan nan nan nan nan nan nan nan nan nan nan nan nan nan nan nan nan nan nan nan nan nan nan nan 1 5 nan nan nan nan nan nan nan nan nan nan nan nan nan nan nan nan nan nan nan nan nan nan nan nan nan nan nan
2 0 nan nan nan nan nan nan nan nan nan nan nan nan nan nan nan nan nan nan nan nan nan nan nan nan nan nan nan nan nan nan nan nan nan nan nan nan nan nan nan nan nan nan nan nan nan nan nan nan nan nan nan nan nan nan nan 0 0 nan nan nan nan nan nan nan nan nan nan nan nan nan nan nan nan nan nan nan nan nan nan nan 1 nan nan nan
0 nan nan nan nan nan nan nan nan nan nan nan nan nan nan nan nan nan nan nan nan nan nan nan nan nan nan nan nan nan nan nan nan nan nan nan nan nan nan nan nan nan nan nan nan nan nan 1 1 nan nan nan nan nan nan nan nan nan nan nan nan nan nan nan nan nan nan nan nan nan nan nan nan nan nan nan nan nan nan nan nan 8 6 nan nan nan
nan nan nan nan nan nan nan nan nan nan nan nan nan nan nan nan nan nan nan nan nan nan nan nan nan nan nan nan nan nan nan nan nan nan nan nan nan nan nan nan nan nan nan nan nan nan nan nan nan nan nan nan nan nan nan nan nan nan nan nan nan nan nan nan nan nan nan nan nan nan nan nan nan nan nan nan nan nan nan nan nan nan nan nan nan nan
nan nan nan nan nan nan nan nan nan nan nan nan nan nan nan nan nan nan nan nan nan nan nan nan nan nan nan nan nan nan nan nan nan nan nan nan 1 1 nan nan nan nan nan nan nan nan nan nan nan nan nan nan nan nan nan nan nan nan nan nan nan nan nan nan nan nan nan nan nan nan nan nan nan nan nan nan nan nan nan nan nan nan nan nan nan nan
nan nan nan nan nan nan 0 nan nan nan nan nan nan nan nan nan nan nan nan nan nan nan nan nan nan nan nan nan nan nan nan nan nan nan nan nan nan nan nan nan nan nan nan nan nan nan nan nan nan nan nan nan nan nan nan nan nan nan nan nan nan nan nan nan nan nan nan nan nan nan nan nan nan nan nan nan nan nan nan nan nan nan nan nan nan nan
nan nan nan nan nan nan nan nan nan nan nan nan nan nan nan nan nan nan nan nan nan nan nan nan nan nan nan nan nan nan nan nan nan nan nan nan nan nan nan nan nan nan nan nan nan nan nan nan nan nan nan nan nan nan nan nan nan nan nan nan nan nan nan nan nan nan nan nan nan nan nan nan nan nan nan nan nan nan nan nan nan nan nan nan nan nan
nan nan nan nan nan nan nan nan nan nan nan nan nan nan nan nan nan nan nan nan nan nan nan nan nan nan nan nan nan nan nan nan nan nan nan nan nan nan nan nan nan nan nan nan nan nan nan nan nan nan nan nan nan nan nan nan nan nan nan nan nan nan nan nan nan nan nan nan nan nan nan nan nan nan nan nan nan nan nan nan nan nan nan nan nan nan
nan nan nan nan nan nan nan nan nan nan nan nan nan nan nan nan 4 4 nan nan nan nan nan nan nan nan nan nan nan nan nan nan nan nan nan nan nan nan nan nan nan nan nan nan nan nan nan nan nan nan nan nan nan nan nan nan nan nan nan nan nan nan nan nan nan nan nan nan nan nan nan nan nan nan nan nan nan nan nan nan nan nan nan nan nan nan
nan nan nan nan nan nan nan nan nan nan nan nan nan nan nan nan nan nan nan nan nan nan nan nan nan nan nan nan nan nan nan nan nan nan nan nan nan nan nan nan nan nan nan nan nan nan nan nan nan nan 0 nan nan nan nan nan nan nan nan nan nan nan nan nan nan nan nan nan nan nan nan nan nan nan nan nan nan nan nan nan nan nan nan nan nan nan
nan nan nan nan nan nan nan nan nan nan nan nan nan nan nan nan nan nan nan nan nan nan nan nan nan nan nan nan nan nan nan nan nan nan nan nan nan nan nan nan nan nan nan nan nan nan nan nan nan nan 0 12 1 1 nan nan nan nan nan nan nan nan nan nan nan nan nan nan nan nan nan nan nan nan nan nan nan nan nan nan nan nan nan nan nan nan
CIN
nan nan nan nan nan nan nan nan nan nan nan nan nan nan nan nan nan nan nan nan nan nan nan nan nan nan nan nan nan nan nan nan nan nan -0 -0 -0 -0 -0 -0 -0 -0 -0 -0 -0 -0 -0 -0 -0 -0 -0 -0 -0 -0 -0 -0 -0 -0 -0 -0 -0 -0 -0 -0 -0 -0 -0 -0 -0 -0 -0 -0 -0 -0 -0 -0 -0 -0 -0 -0 -0 -0 -0 -0 -0 -0
nan nan nan nan nan nan nan nan nan nan nan nan nan nan nan nan nan nan nan nan nan nan nan nan nan nan nan nan nan nan nan nan nan nan -0 -0 -0 -0 -0 -0 -0 -0 -0 -0 -0 -0 -0 -0 -0 -0 -0 -0 -0 -0 -0 -0 -0 -0 -0 -0 -0 -0 -0 -0 -0 -0 -0 -0 -0 -0 -0 -0 -0 -0 -0 -0 -0 -0 -0 -0 -0 -0 -0 -0 -0 -0
nan nan nan nan nan nan nan nan nan nan nan nan nan nan nan nan nan nan nan nan nan nan nan nan nan nan nan nan nan nan nan nan nan nan -0 -0 -0 -0 -0 -0 -0 -0 -0 -0 -0 -0 -0 -0 -0 -0 -0 -0 -0 -0 -0 -0 -0 -0 -0 -0 -0 -0 -0 -0 -0 -0 -0 -0 -0 -0 -0 -0 -0 -0 -0 -0 -0 -0 -0 -0 -0 -0 -0 -0 -0 -0
nan nan nan nan nan nan nan nan nan nan nan nan nan nan nan nan nan nan nan nan nan nan nan nan nan nan nan nan nan nan nan nan nan nan nan -0 -0 -0 -0 -0 -0 -0 -0 -0 -0 -0 -0 -0 -0 -0 -0 -0 -0 -0 -0 -0 -0 -0 -0 -0 -0 -0 -0 -0 -0 -0 -0 -0 -0 -0 -0 -0 -0 -0 -0 -0 -0 -0 -0 -0 -0 -0 -0 -0 -0 -0
nan nan nan nan nan nan nan nan nan nan nan nan nan nan nan nan nan nan nan nan nan nan nan nan nan nan nan nan nan nan nan nan nan nan nan nan nan nan -0 -0 -0 -0 -0 -0 -0 -0 -0 -0 -0 -0 -0 -0 -0 -0 -0 -0 -0 -0 -0 -0 -0 -0 -0 -0 -0 -0 -0 -0 -0 -0 -0 -0 -0 -0 -0 -0 -0 -0 -0 -0 -0 -0 -0 -0 -0 -0
nan nan nan nan nan nan nan nan nan nan nan nan nan nan nan nan nan nan nan nan nan nan nan nan nan nan nan nan nan nan nan nan nan nan nan nan nan nan nan -0 -0 -0 -0 -0 -0 -0 -0 -0 -0 -0 -0 -0 -0 -0 -0 -0 -0 -0 -0 -0 -0 -0 -0 -0 -0 -0 -0 -0 -0 -0 -0 -0 -0 -0 -0 -0 -0 -0 -0 -0 -0 -0 -0 -0 -0 -0
nan nan nan nan nan nan nan nan nan nan nan nan nan nan nan nan nan nan nan nan nan nan nan nan nan nan nan nan nan nan nan nan nan nan nan nan nan nan nan -0 -0 -0 -0 -0 -0 -0 -0 -0 -0 -0 -0 -0 -0 -0 -0 -0 -0 -0 -0 -0 -0 -0 -0 -0 -0 -0 -0 -0 -0 -0 -0 -0 -0 -0 -0 -0 -0 -0 -0 -0 -0 -0 -0 -0 -0 -0
nan nan nan nan nan nan nan nan nan nan nan nan nan nan nan nan nan nan nan nan nan nan nan nan nan nan nan nan nan nan nan nan nan nan nan nan nan nan -0 -0 -0 -0 -0 -0 -0 -0 -0 -0 -0 -0 -0 -0 -0 -0 -0 -0 -0 -0 -0 -0 -0 -0 -0 -0 -0 -0 -0 -0 -0 -0 -0 -0 -0 -0 -0 -0 -0 -0 -0 -0 -0 -0 -0 -0 -0 -0
nan nan nan nan nan nan nan nan nan nan nan nan nan nan nan nan nan nan nan nan nan nan nan nan nan nan nan nan nan nan nan nan nan nan nan nan nan nan nan -0 -0 -0 -0 -0 -0 -0 -0 -0 -0 -0 -0 -0 -0 -0 -0 -0 -0 -0 -0 -0 -0 -0 -0 -0 -0 -0 -0 -0 -0 -0 -0 -0 -0 -0 -0 -0 -0 -0 -0 -0 -0 -0 -0 -0 -0 -0
nan nan nan nan nan nan nan nan nan nan nan nan nan nan nan nan nan nan nan nan nan nan nan nan nan nan nan nan nan nan nan nan nan nan nan nan -0 -0 nan nan nan nan nan nan nan nan nan nan nan nan -0 -0 -0 -0 -0 -0 -0 -0 -0 -0 -0 -0 -0 -0 -0 -0 -0 -0 -0 -0 -0 -0 -0 -0 -0 -0 -0 -0 -0 -0 -0 -0 -0 -0 -0 -0
nan nan nan nan nan nan nan nan nan nan nan nan nan nan nan nan nan nan nan nan nan nan nan nan nan nan nan nan nan nan nan nan nan nan nan nan nan nan nan nan nan nan nan nan nan nan nan nan nan nan nan -0 -0 -0 -0 -0 -0 -0 -0 -0 -0 -0 -0 -0 -0 -0 -0 -0 -0 -0 -0 -0 -0 -0 -0 -0 -0 -0 -0 -0 -0 -0 -0 -0 -0 -0
nan nan nan nan nan nan nan nan nan nan nan nan nan nan nan nan nan nan nan nan nan nan nan nan nan nan nan nan nan nan nan nan nan nan nan nan nan nan nan nan nan nan nan nan nan nan nan nan nan nan nan nan -0 -0 -0 -0 -0 -0 -0 -0 -0 -0 -0 -0 -0 -0 -0 -0 -0 -0 -0 -0 -0 -0 -0 -0 -0 -0 -0 -0 -0 -0 -0 -0 -0 -0
nan nan nan nan nan nan nan nan nan nan nan nan nan nan nan nan nan nan nan nan nan nan nan nan nan nan nan nan nan nan nan nan nan nan nan nan nan nan nan nan nan nan nan nan nan nan nan nan nan nan nan nan -0 -0 -0 -0 -0 -0 -0 -0 -0 -0 -0 -0 -0 -0 -0 -0 -0 -0 -0 -0 -0 -0 -0 -0 -0 -0 -0 -0 -0 -0 -0 -0 -0 -0
nan nan nan nan nan nan nan nan nan nan nan nan nan nan nan nan nan nan nan nan nan nan nan nan nan nan nan nan nan nan nan nan nan nan nan nan nan nan nan nan nan nan nan nan nan nan nan nan nan nan nan nan -16 -16 -11 -0 -0 -0 -0 -0 -0 -0 -0 -0 -0 -0 -0 -0 -0 -0 -0 -0 -0 -0 -0 -0 -0 -0 -0 -0 -0 -0 -0 -0 -0 -0
nan nan nan nan nan nan nan nan nan nan nan nan nan nan nan nan nan nan nan nan nan nan nan nan nan nan nan nan nan nan nan nan nan nan nan nan nan nan nan nan nan nan nan nan nan nan nan nan nan nan nan nan nan nan nan -0 -0 -0 -0 -0 -0 -0 -0 -0 -0 -0 -0 -0 -0 -0 -0 -0 -0 -0 -0 -0 -0 -0 -0 -0 -0 -0 -0 -0 -0 -0
nan nan nan nan nan nan nan nan nan nan nan nan nan nan nan nan nan nan nan nan nan nan nan nan nan nan nan nan nan nan nan nan nan nan nan nan nan nan nan nan nan nan nan nan nan nan nan nan nan nan nan nan -0 -0 -0 -0 -0 -0 -0 -0 -0 -0 -0 -0 -0 -0 -0 -0 -0 -0 -0 -0 -0 -0 -0 -0 -0 -0 -0 -0 -0 -0 -0 -0 -0 -0
nan nan nan nan nan nan nan nan nan nan nan nan nan nan nan nan nan nan nan nan nan nan nan nan nan nan nan nan nan nan nan nan nan nan nan nan nan nan nan nan nan nan nan nan nan nan nan nan nan nan nan nan -0 -0 -0 -0 -0 -0 -0 -0 -0 -0 -0 -0 -0 -0 -0 -0 -0 -0 -0 -0 -0 -0 -0 -0 -0 -0 -0 -0 -0 -0 -0 -0 -0 -0
nan nan nan nan nan nan nan nan nan nan nan nan nan nan nan nan nan nan nan nan nan nan nan nan nan nan nan nan nan nan nan nan nan nan nan nan nan nan nan nan nan nan nan nan nan nan nan nan nan nan nan -0 -0 -0 -0 -0 -0 -0 -0 -0 -0 -0 -0 -0 -0 -0 -0 -0 -0 -0 -0 -0 -0 -0 -0 -0 -0 -0 -0 -0 -0 -0 -0 -0 -0 -0
nan nan nan nan nan nan nan nan nan nan nan nan nan nan nan nan nan nan nan nan nan nan nan nan nan nan nan nan nan nan nan nan nan nan nan nan nan nan nan nan nan nan nan nan nan nan nan nan nan nan nan -0 -0 -0 -0 -0 -0 -0 -0 -0 -0 -0 -0 -0 -0 -0 -0 -0 -0 -0 -0 -0 -0 -0 -0 -0 -0 -0 -0 -0 -0 -0 -0 -0 -0 -0
nan nan nan nan nan nan nan nan nan nan nan nan nan nan nan nan nan nan nan nan nan nan nan nan nan nan nan nan nan nan nan nan nan nan nan nan nan nan nan nan nan nan nan nan nan nan nan nan nan nan nan nan -0 -0 -0 -0 -0 -0 -0 -0 -0 -0 -0 -0 -0 -0 -0 -0 -0 -0 -0 -0 -0 -0 -0 -0 -0 -0 -0 -0 -0 -0 -0 -0 -0 -0
nan nan nan nan nan nan nan nan nan nan nan nan nan nan nan nan nan nan nan nan nan nan nan nan nan nan nan nan nan nan nan nan nan nan nan nan nan nan nan nan nan nan nan nan nan nan nan nan nan nan nan -0 -0 -0 -0 -0 -0 -0 -0 -0 -0 -0 -0 -0 -0 -0 -0 -0 -0 -0 -0 -0 -0 -0 -0 -0 -0 -0 -0 -0 -0 -0 -0 -0 -0 -0
nan nan nan nan nan nan nan nan nan nan nan nan nan nan nan -7 -5 -5 -9 -7 -7 -4 -3 nan nan nan nan nan nan nan nan nan nan nan nan nan nan nan nan nan nan nan nan nan nan nan nan nan nan nan nan -0 -0 -0 -0 -0 -0 -0 -0 -0 -0 -0 -0 -0 -0 -0 -0 -0 -0 -0 -0 -0 -0 -0 -0 -0 -0 -0 -0 -0 -0 -0 -0 -0 -0 -0
nan nan nan nan nan nan nan nan nan nan nan nan nan nan nan nan -5 -5 nan -6 -6 -4 -3 -5 -5 -6 -10 nan nan nan nan nan nan nan nan nan nan nan nan nan nan nan nan nan nan nan nan nan nan nan nan -0 -0 -0 -0 -0 -0 -0 -0 -0 -0 -0 -0 -0 -0 -0 -0 -0 -0 -0 -0 -0 -0 -0 -0 -0 -0 -0 -0 -0 -0 -0 -0 -0 -0 -0
nan nan nan nan nan nan nan nan nan nan nan nan nan nan nan nan nan nan nan -9 -9 -6 -5 -7 -7 -7 -10 nan nan nan nan nan nan nan nan nan nan nan nan nan nan nan nan nan nan nan nan nan nan nan nan nan -0 -0 -0 -0 -0 -0 -0 -0 -0 -0 -0 -0 -0 -0 -0 -0 -0 -0 -0 -0 -0 -0 -0 -0 -0 -0 -0 -0 -0 -0 -0 -0 -0 -0
nan nan nan nan nan nan nan nan nan nan nan nan nan nan nan nan -8 -8 -12 -12 -12 -10 -8 -6 -6 -5 nan -3 nan nan nan nan nan nan nan nan nan nan nan nan nan nan nan nan nan nan nan nan nan nan nan nan nan nan -0 -0 -0 -0 -0 -0 -0 -0 -0 -0 -0 -0 -0 -0 -0 -0 -0 -0 -0 -0 -0 -0 -0 -0 -0 -0 -0 -0 -0 -0 -0 -0
nan nan nan nan nan -1 -0 -0 -0 -0 -0 -17 -28 -28 nan -15 -18 -18 nan nan nan -9 -6 -5 -5 -3 nan nan nan nan nan nan nan nan nan nan nan nan nan nan nan nan nan nan nan nan nan nan nan nan nan nan nan nan nan -0 -0 -0 -0 -0 -0 -0 -0 -0 -0 -0 -0 -0 -0 -0 -0 -0 -0 -0 -0 -0 -0 -0 -0 -0 -0 -0 -0 -0 -0 -0
-0 -0 -0 -0 -0 -0 -0 -0 -0 -0 -0 -0 -8 -8 -22 -27 nan nan nan nan nan -7 -3 -3 -3 nan nan nan nan nan nan nan nan nan nan nan nan nan nan nan nan nan nan nan nan nan nan nan nan nan nan nan nan nan nan -0 -0 -0 -0 -0 -0 -0 -0 -0 -0 -0 -0 -0 -0 -0 -0 -0 -0 -0 -0 -0 -0 -0 -0 -0 -0 -0 -0 -0 -0 -0
-0 -0 -0 -0 -0 -0 -0 -0 -0 -0 -0 -0 -0 -0 -1 nan nan nan nan nan nan nan -3 nan nan nan nan nan nan nan nan nan nan nan nan nan nan nan nan nan nan nan nan nan nan nan nan nan nan nan nan nan nan nan nan -0 -0 -0 -0 -0 -0 -0 -0 -0 -0 -0 -0 -0 -0 -0 -0 -0 -0 -0 -0 -0 -0 -0 -0 -0 -0 -0 -0 -0 -0 -15
-0 -0 -0 -0 -0 -0 -0 -0 -0 -0 -0 -0 -0 -0 -1 nan nan nan nan nan nan -6 -2 -2 -2 -3 nan nan nan nan nan nan nan nan nan nan nan nan nan nan nan nan nan nan nan nan nan nan nan nan nan nan nan nan nan nan nan -0 -0 -0 -0 -0 -0 -0 -0 -0 -0 -0 -0 -0 -0 -0 -0 -0 -0 -0 -0 -0 -0 -0 -0 -0 -0 -6 -6 -19
nan nan nan -0 -0 -0 -0 nan -0 -0 -0 -0 -0 -0 -0 -27 nan nan nan nan nan -7 -2 -1 -1 -3 -5 nan nan nan nan nan nan nan nan nan nan nan nan nan nan nan nan nan nan nan nan nan nan nan nan nan nan nan nan nan nan nan nan -0 -0 -0 -0 -0 -0 -0 -0 -0 -0 -0 -0 -0 -0 -0 -0 -0 -0 -0 -0 -0 -0 -0 -8 -22 -22 -22
nan nan nan nan nan nan nan nan nan nan -0 -0 -0 -0 -6 nan nan nan nan nan nan nan -5 -5 -5 -5 -5 nan nan nan nan nan nan nan nan nan nan nan nan nan nan nan nan nan nan nan nan nan nan nan nan nan nan nan nan nan nan nan nan nan nan nan -0 -0 -0 -0 -0 -0 -0 -0 -0 -0 -0 -0 -0 -0 -0 -0 -0 -0 -0 -0 -11 -17 -17 -19
nan nan nan nan nan nan nan nan nan nan nan nan nan nan -10 -22 -44 -44 nan nan nan nan nan nan nan -11 -9 -5 nan nan nan nan nan nan nan nan nan nan nan nan nan nan nan -14 -14 nan nan nan nan nan nan nan nan nan nan nan nan nan nan nan nan nan nan -0 -0 -0 -0 -0 -0 -0 -0 -0 -0 -0 -0 -0 -0 -0 -0 -0 -0 -0 -7 -18 -18 -11
nan nan nan nan nan nan nan nan nan nan nan nan nan nan nan nan -10 -10 -29 nan nan nan nan nan nan -10 -8 -8 nan nan nan nan -5 -5 -0 nan nan nan nan nan nan -10 nan nan nan nan nan nan nan nan nan nan nan nan nan nan nan nan nan nan nan nan nan nan nan nan nan -0 -0 -0 -0 -0 -0 -0 -0 -0 -0 -0 -0 -0 -0 -0 -0 -15 -15 -10
nan nan nan nan nan nan nan nan nan nan nan nan nan nan nan nan -21 -21 -22 nan nan nan nan nan nan nan nan -5 -5 -5 nan nan -0 -0 -0 nan nan nan nan nan nan nan nan nan nan nan nan nan nan nan nan nan nan nan nan nan nan nan nan nan nan nan nan nan nan nan nan nan nan nan nan nan -0 -0 -0 -0 -0 -0 -0 -0 -0 -0 -0 -0 -0 -4
nan nan nan nan nan nan nan nan nan nan nan nan nan nan nan nan nan nan nan nan nan nan nan nan nan nan nan nan nan nan nan nan nan nan -0 -7 -8 -8 -7 -8 -8 nan nan nan nan nan nan nan nan -3 nan nan nan nan nan nan nan nan nan nan nan nan nan nan nan nan nan nan nan nan nan nan nan nan nan -0 -0 -0 -0 -0 -0 -0 -0 -0 -0 -0
nan nan nan nan nan nan nan nan nan nan -2 nan nan nan nan nan nan nan nan nan nan nan nan nan nan nan nan nan nan nan nan nan nan nan -0 -8 -12 -12 nan nan nan -10 nan nan nan nan nan nan nan -2 -1 nan nan nan nan nan nan nan nan nan nan nan nan nan nan nan nan nan nan nan nan nan nan nan nan -0 -0 -0 -0 -0 -0 -0 -0 -0 -0 -0
nan nan nan nan nan nan nan nan nan nan nan nan nan nan nan nan nan nan nan nan nan nan nan nan nan nan -7 nan nan nan nan nan nan nan -5 nan nan nan nan nan nan -5 -10 nan nan nan nan nan nan -5 nan nan nan nan nan nan nan nan nan nan nan nan nan nan nan nan nan nan nan nan nan nan nan nan nan -0 -0 -0 -0 -0 -0 -0 -0 -0 -0 -0
nan nan nan nan nan nan nan nan nan nan nan nan nan nan nan nan nan nan nan nan nan nan nan nan nan nan -6 -0 nan nan nan nan nan nan nan nan nan nan nan nan nan -5 -7 -9 -9 nan nan nan nan nan nan nan nan nan nan nan nan nan nan nan nan nan nan nan nan nan nan nan nan nan nan nan nan nan nan nan nan nan nan nan nan -1 -0 -0 -0 -0
nan nan nan -7 -7 nan nan nan nan nan nan nan nan nan nan nan nan nan nan nan nan nan nan nan nan nan nan nan -17 -17 -10 nan nan nan nan nan nan nan nan nan nan nan nan -15 -15 nan nan nan nan nan nan nan nan nan nan nan nan nan nan nan nan nan nan nan nan nan nan nan nan nan nan nan nan nan nan nan nan nan nan nan nan nan nan nan nan -0
nan nan nan nan nan nan nan nan nan nan nan nan -6 -6 -8 -8 nan nan nan nan nan nan nan nan nan nan nan nan nan nan nan nan nan nan nan nan nan nan nan nan nan nan nan nan nan nan nan nan nan nan nan nan nan nan nan nan nan nan -5 nan nan nan nan nan nan nan nan nan nan nan nan nan nan nan nan nan nan nan nan nan nan nan nan nan nan nan
-5 nan nan nan nan nan nan nan nan nan nan nan nan nan nan nan nan nan nan nan nan nan nan nan nan nan nan nan nan nan nan nan nan nan nan nan nan nan nan nan nan nan nan nan nan nan nan nan nan nan nan nan nan nan nan nan nan -1 -0 nan nan nan nan nan nan nan nan nan nan nan nan nan nan nan nan nan nan nan nan nan nan nan nan nan nan nan
-0 -3 nan nan nan nan nan nan nan nan nan nan nan nan nan nan nan nan nan nan nan nan nan nan nan nan nan nan nan nan nan nan nan nan nan nan nan nan nan nan nan nan nan nan nan nan nan nan nan nan nan nan nan nan nan nan nan -4 -2 nan nan nan nan nan nan nan nan nan nan nan nan nan nan nan nan nan nan nan nan nan nan nan -7 nan nan nan
-5 nan nan nan nan nan nan nan nan nan nan nan nan nan nan nan nan nan nan nan nan nan nan nan nan nan nan nan nan nan nan nan nan nan nan nan nan nan nan nan nan nan nan nan nan nan nan -6 -6 nan nan nan nan nan nan nan nan nan nan nan nan nan nan nan nan nan nan nan nan nan nan nan nan nan nan nan nan nan nan nan nan -0 -0 nan nan nan
nan nan nan nan nan nan nan nan nan nan nan nan nan nan nan nan nan nan nan nan nan nan nan nan nan nan nan nan nan nan nan nan nan nan nan nan nan nan nan nan nan nan nan nan nan nan nan nan nan nan nan nan nan nan nan nan nan nan nan nan nan nan nan nan nan nan nan nan nan nan nan nan nan nan nan nan nan nan nan nan nan nan nan nan nan nan
nan nan nan nan nan nan nan nan nan nan nan nan nan nan nan nan nan nan nan nan nan nan nan nan nan nan nan nan nan nan nan nan nan nan nan nan -24 -24 nan nan nan nan nan nan nan nan nan nan nan nan nan nan nan nan nan nan nan nan nan nan nan nan nan nan nan nan nan nan nan nan nan nan nan nan nan nan nan nan nan nan nan nan nan nan nan nan
nan nan nan nan nan nan -11 nan nan nan nan nan nan nan nan nan nan nan nan nan nan nan nan nan nan nan nan nan nan nan nan nan nan nan nan nan nan nan nan nan nan nan nan nan nan nan nan nan nan nan nan nan nan nan nan nan nan nan nan nan nan nan nan nan nan nan nan nan nan nan nan nan nan nan nan nan nan nan nan nan nan nan nan nan nan nan
nan nan nan nan nan nan nan nan nan nan nan nan nan nan nan nan nan nan nan nan nan nan nan nan nan nan nan nan nan nan nan nan nan nan nan nan nan nan nan nan nan nan nan nan nan nan nan nan nan nan nan nan nan nan nan nan nan nan nan nan nan nan nan nan nan nan nan nan nan nan nan nan nan nan nan nan nan nan nan nan nan nan nan nan nan nan
nan nan nan nan nan nan nan nan nan nan nan nan nan nan nan nan nan nan nan nan nan nan nan nan nan nan nan nan nan nan nan nan nan nan nan nan nan nan nan nan nan nan nan nan nan nan nan nan nan nan nan nan nan nan nan nan nan nan nan nan nan nan nan nan nan nan nan nan nan nan nan nan nan nan nan nan nan nan nan nan nan nan nan nan nan nan
nan nan nan nan nan nan nan nan nan nan nan nan nan nan nan nan -0 -0 nan nan nan nan nan nan nan nan nan nan nan nan nan nan nan nan nan nan nan nan nan nan nan nan nan nan nan nan nan nan nan nan nan nan nan nan nan nan nan nan nan nan nan nan nan nan nan nan nan nan nan nan nan nan nan nan nan nan nan nan nan nan nan nan nan nan nan nan
nan nan nan nan nan nan nan nan nan nan nan nan nan nan nan nan nan nan nan nan nan nan nan nan nan nan nan nan nan nan nan nan nan nan nan nan nan nan nan nan nan nan nan nan nan nan nan nan nan nan -19 nan nan nan nan nan nan nan nan nan nan nan nan nan nan nan nan nan nan nan nan nan nan nan nan nan nan nan nan nan nan nan nan nan nan nan
nan nan nan nan nan nan nan nan nan nan nan nan nan nan nan nan nan nan nan nan nan nan nan nan nan nan nan nan nan nan nan nan nan nan nan nan nan nan nan nan nan nan nan nan nan nan nan nan nan nan -19 -2 -15 -15 nan nan nan nan nan nan nan nan nan nan nan nan nan nan nan nan nan nan nan nan nan nan nan nan nan nan nan nan nan nan nan nan
Wind_Speed
2 2 2 3 3 2 2 2 2 2 2 2 2 2 2 2 2 2 3 3 3 3 4 4 4 5 6 9 12 14 16 16 17 17 18 18 18 18 18 18 18 18 18 18 18 18 18 18 18 18 18 19 19 19 20 20 20 20 20 20 21 21 21 21 21 21 21 21 21 21 21 20 20 21 21 21 21 21 22 22 22 22 22 22 22 22
2 2 2 3 3 2 2 2 2 2 3 3 3 2 2 2 2 2 2 3 3 3 4 4 4 5 5 7 10 14 16 17 18 18 18 18 18 19 19 19 19 19 18 18 18 18 18 18 18 18 19 19 19 19 20 20 20 20 20 20 20 20 20 20 21 21 21 21 20 20 20 20 20 20 20 20 21 21 21 21 21 21 22 22 22 22
2 2 2 2 3 2 2 2 2 2 2 3 3 2 2 2 2 2 2 3 3 3 4 4 4 4 5 6 9 14 16 17 18 19 19 19 19 19 19 19 19 19 18 18 18 18 18 18 19 19 19 19 20 20 20 20 20 20 20 20 20 20 20 20 20 20 20 20 20 20 19 19 19 19 20 20 20 20 21 21 21 21 21 21 22 22
2 2 2 2 2 2 1 2 2 2 2 2 2 2 2 2 2 2 2 3 3 3 4 4 4 4 4 5 8 12 16 18 19 20 20 20 20 20 20 20 19 19 19 18 18 18 19 19 19 19 20 20 20 20 20 20 20 20 19 19 19 19 19 19 19 19 19 19 19 19 19 19 19 19 19 19 20 20 20 20 20 20 21 21 21 22
2 2 2 2 2 1 1 2 2 2 2 2 2 2 2 2 2 2 3 3 3 3 3 3 3 4 4 5 7 12 16 18 20 20 20 20 20 20 20 20 19 19 19 19 19 19 19 19 20 20 20 20 20 20 20 20 20 20 19 19 19 19 19 19 19 18 18 18 18 18 18 19 19 19 19 19 19 20 20 20 20 20 20 21 21 22
2 2 2 2 1 1 1 1 2 2 2 2 2 2 2 2 2 2 3 3 3 3 3 3 3 4 4 5 8 12 16 18 19 20 20 20 20 20 20 20 19 19 19 19 19 19 19 20 20 20 20 20 20 20 20 20 20 19 19 19 19 19 18 18 18 18 18 18 18 18 18 18 18 19 19 19 19 20 20 20 20 20 20 21 21 21
2 1 1 1 1 1 1 1 2 2 2 2 2 2 2 2 2 2 2 2 2 2 2 3 3 4 4 6 8 11 13 15 16 17 18 19 19 19 19 19 19 19 19 19 19 19 20 20 20 20 21 21 21 21 20 20 20 19 19 19 18 18 18 18 18 18 18 18 18 18 18 18 18 19 19 19 20 20 20 20 20 21 21 21 21 21
2 2 1 1 1 1 1 2 2 2 2 2 2 2 3 2 2 2 2 2 2 2 2 3 3 4 4 5 6 8 9 10 11 12 13 15 15 16 17 18 18 18 19 19 19 20 20 20 20 21 21 21 21 21 20 20 20 19 19 19 18 18 18 18 17 17 18 18 18 18 18 19 19 19 19 20 20 20 20 21 21 21 21 21 21 22
2 2 2 1 1 1 2 2 2 1 1 2 2 2 3 3 2 2 2 2 2 2 2 3 4 4 4 4 5 6 7 8 8 9 10 9 10 11 14 15 16 17 18 19 20 20 20 21 21 21 21 21 21 21 20 20 20 19 19 18 18 18 18 18 18 18 18 18 19 19 19 19 20 20 20 20 20 20 21 21 21 21 21 21 22 22
1 2 2 1 1 1 1 2 2 2 1 1 1 2 2 2 2 3 3 3 2 2 2 3 4 5 5 5 5 5 7 8 10 11 12 11 12 13 13 13 14 15 18 19 20 20 21 21 21 21 21 21 21 20 20 20 19 19 19 18 18 18 18 18 19 19 19 19 19 19 20 20 20 20 20 20 20 21 21 21 21 21 21 22 22 22
1 1 2 2 1 1 1 2 2 2 2 2 2 1 1 2 2 3 4 4 4 3 3 3 4 4 5 5 6 6 6 6 7 9 11 12 13 14 13 13 13 14 17 17 18 19 20 20 21 21 21 21 20 20 20 19 19 19 18 18 18 18 19 19 19 20 20 20 20 20 20 20 20 20 20 21 21 21 21 21 21 21 21 22 22 22
1 1 1 1 2 2 2 2 2 2 2 2 2 2 2 2 2 3 4 5 5 5 5 4 4 4 5 5 6 6 5 5 5 5 5 7 8 8 9 9 10 11 13 14 15 16 18 19 20 20 19 19 19 19 19 18 18 18 18 19 19 19 19 20 20 20 21 21 21 21 21 21 21 21 21 21 21 21 21 21 21 21 21 22 22 22
1 1 1 1 2 2 2 2 2 2 2 2 2 3 3 3 3 3 3 4 5 5 5 5 5 4 4 5 5 5 5 5 5 4 4 4 4 5 5 5 6 7 7 8 8 10 13 16 17 17 17 17 17 18 18 18 18 19 19 19 20 20 20 21 21 21 21 21 21 21 21 21 21 21 21 21 21 21 21 21 21 22 22 22 22 22
2 2 2 2 2 2 2 2 2 2 2 2 2 2 2 3 3 3 3 4 4 5 5 5 6 5 4 4 4 4 4 4 4 4 4 4 4 4 5 5 6 6 5 5 6 7 10 11 11 11 14 14 15 15 15 17 18 19 20 20 21 21 21 21 21 21 21 21 22 22 22 22 21 21 21 21 21 21 21 21 22 22 22 22 22 22
2 2 2 2 2 3 3 2 2 2 2 2 2 2 3 3 4 4 4 5 5 5 5 5 6 5 4 3 3 3 4 4 4 5 5 5 5 5 5 6 6 6 5 5 6 6 8 8 7 7 8 10 11 12 14 16 18 20 21 21 22 22 22 22 22 22 22 22 22 22 22 22 22 22 22 22 22 22 21 21 22 22 22 22 22 22
2 2 2 2 3 3 2 2 2 2 3 3 3 3 4 4 4 4 4 5 5 5 5 6 6 5 4 3 3 3 4 4 5 5 7 6 5 5 5 6 6 6 5 5 5 5 6 6 6 6 6 9 12 16 18 19 20 21 22 22 22 22 22 22 22 22 22 23 23 23 22 22 22 22 22 22 22 22 22 22 22 22 22 22 22 22
2 2 2 2 3 3 3 2 2 2 3 3 3 3 3 3 4 4 4 4 4 4 4 4 5 5 5 4 3 3 4 5 5 6 8 7 6 5 5 5 6 7 6 6 5 5 5 5 5 5 6 10 14 18 19 20 21 22 22 23 23 23 23 23 23 23 23 23 23 23 23 23 23 22 22 22 22 22 22 22 22 22 22 22 22 22
2 2 2 2 3 3 3 3 2 2 3 3 3 3 3 3 3 3 4 4 4 4 4 4 4 5 5 5 4 4 4 5 6 7 8 8 7 5 5 5 5 6 6 5 5 4 5 4 5 6 8 14 17 19 21 21 22 22 23 23 23 23 23 24 24 24 24 24 23 23 23 23 23 23 23 22 22 22 22 22 22 22 22 22 22 22
2 2 2 2 3 3 3 2 2 3 3 3 3 4 4 4 4 4 3 3 4 4 4 5 4 5 5 6 6 6 5 6 6 7 8 8 7 6 4 5 5 5 5 5 5 5 5 5 6 9 13 16 19 20 21 22 22 23 23 23 24 24 24 24 24 24 24 24 24 23 23 23 23 23 23 23 23 22 22 22 22 22 22 22 22 23
2 2 2 2 3 3 3 2 2 3 3 4 4 4 4 4 4 4 3 3 3 4 4 5 5 5 5 6 7 7 6 6 6 7 7 8 7 6 4 4 5 5 5 5 4 4 5 5 6 9 13 15 18 20 21 22 23 23 24 24 24 25 25 25 25 25 24 24 24 23 23 23 23 23 23 23 23 23 23 23 23 23 23 23 23 23
2 2 2 2 2 2 3 2 3 3 4 5 4 4 4 4 4 4 3 4 4 4 4 4 5 5 5 6 7 7 7 7 6 6 6 6 6 5 4 4 4 5 6 6 5 5 5 5 5 6 9 14 18 20 22 23 23 24 24 25 25 25 25 25 25 24 24 24 24 23 23 23 23 23 23 23 23 24 24 24 24 24 23 23 23 23
2 2 2 2 2 2 3 3 4 5 5 5 4 4 4 4 5 5 5 5 5 5 6 6 6 6 6 7 8 8 7 6 5 5 5 6 6 5 4 4 4 5 6 6 5 5 5 5 5 6 10 15 19 21 22 23 24 24 25 25 25 25 25 25 24 24 24 24 24 24 24 24 24 24 24 24 24 24 24 24 24 24 24 24 24 24
2 3 3 3 3 3 4 4 4 4 5 4 4 4 3 4 4 5 5 5 5 6 6 6 7 7 7 7 7 7 6 5 5 5 5 6 6 6 4 4 5 6 6 6 5 5 5 5 6 7 10 16 19 21 22 23 24 24 25 25 25 25 24 24 24 24 24 24 24 24 25 25 25 25 25 25 24 24 24 24 24 24 24 24 24 24
3 3 4 4 4 4 3 4 4 4 4 4 4 4 3 4 4 4 4 4 5 5 5 6 7 7 7 7 6 5 4 4 3 3 4 5 6 6 5 5 6 7 7 6 6 6 6 6 6 7 8 13 17 20 22 23 23 24 24 24 24 24 24 24 24 25 25 25 25 26 26 26 26 25 25 25 25 24 24 24 24 24 24 24 24 24
4 4 4 4 5 6 6 6 7 7 6 5 4 4 4 4 5 4 4 4 4 5 5 6 7 7 6 6 5 4 3 3 3 3 3 4 6 6 5 5 5 7 8 6 6 6 6 7 7 7 7 10 14 18 21 22 23 23 23 23 24 24 24 25 25 26 26 26 26 26 26 26 26 26 25 25 25 25 24 24 24 24 24 24 24 24
7 7 7 9 10 12 13 14 13 13 12 9 6 4 4 4 3 3 3 3 4 5 6 6 7 6 5 4 4 4 3 3 3 3 3 4 5 6 5 4 5 6 8 7 6 6 7 8 8 7 6 8 11 15 18 20 21 22 22 23 24 24 25 26 26 27 27 27 27 27 27 26 26 26 25 25 25 25 25 24 24 25 25 25 24 23
13 14 15 15 16 16 16 16 17 17 17 15 12 9 6 3 3 3 4 3 4 5 6 6 7 7 6 5 4 4 4 4 3 3 3 4 5 6 5 4 5 6 8 8 7 7 9 9 8 7 6 6 8 11 15 18 19 21 22 23 24 25 26 27 27 27 27 27 27 27 27 26 26 26 26 25 25 25 25 25 25 25 24 23 21 19
14 14 15 15 15 15 16 15 15 15 15 15 15 13 8 4 3 3 4 4 4 4 5 6 6 7 6 5 5 5 4 4 3 3 3 4 5 5 5 5 5 6 8 8 7 8 9 8 7 6 6 5 6 7 11 14 17 19 21 23 24 25 26 26 27 27 27 27 27 27 27 26 26 26 26 25 25 25 25 25 25 24 22 19 14 11
11 12 13 13 14 14 14 14 13 14 14 14 14 12 8 4 3 3 4 3 4 4 6 6 6 6 6 7 6 6 5 4 3 3 3 3 4 5 5 5 5 6 7 7 7 7 6 5 4 4 4 5 5 5 7 10 13 15 17 20 22 24 24 25 26 26 26 27 27 27 26 26 26 26 26 25 25 25 25 25 24 22 17 13 11 10
6 7 8 9 10 10 10 9 9 11 12 13 12 11 8 4 3 3 3 3 3 4 6 6 6 6 6 7 6 6 4 3 2 2 3 4 4 5 5 6 6 6 6 7 7 7 5 4 3 3 3 4 5 5 5 7 9 10 11 15 17 19 21 23 24 25 25 26 26 26 26 26 26 26 26 25 25 25 25 25 23 19 12 10 10 10
4 4 4 5 5 6 6 6 6 7 9 10 10 9 6 4 3 3 3 3 3 4 5 6 6 6 6 6 6 5 4 3 3 4 4 4 5 5 6 6 6 6 5 5 6 7 8 5 4 3 3 5 5 6 6 7 7 8 8 9 10 13 17 20 22 22 23 24 24 25 25 25 26 26 26 25 25 25 25 25 23 18 12 10 10 10
3 4 3 4 4 4 4 4 4 4 5 5 6 6 5 4 3 3 3 3 3 3 4 5 6 6 6 5 6 5 5 4 5 5 6 5 5 5 5 6 6 6 4 4 5 6 7 7 6 5 5 6 6 6 7 7 7 7 8 8 8 10 14 17 18 19 19 20 22 23 24 24 25 25 25 25 25 25 25 25 23 18 12 10 10 10
4 4 4 4 4 4 3 3 3 3 4 4 4 4 4 4 4 4 3 2 3 3 3 4 5 6 6 6 6 6 6 5 6 7 8 6 5 4 5 6 6 6 6 5 5 6 6 7 8 8 7 7 6 6 7 7 7 7 7 7 7 8 11 13 13 14 14 16 17 19 21 22 23 24 24 25 25 24 24 25 23 20 15 12 10 11
4 4 4 4 4 3 3 3 3 3 4 4 4 4 4 4 4 4 4 4 3 3 3 4 5 6 7 7 7 7 7 6 7 8 8 6 5 5 5 6 7 7 7 6 6 6 6 8 8 9 8 8 6 6 6 6 7 7 6 6 6 7 9 9 10 10 12 12 12 13 15 16 17 19 20 21 22 22 23 23 23 22 21 16 13 12
4 4 4 4 3 3 3 3 3 4 4 4 4 4 4 4 4 4 4 4 4 4 4 4 5 6 6 7 7 8 7 6 7 8 9 7 6 5 6 6 6 7 7 7 6 6 6 8 9 10 9 9 8 6 5 6 6 6 5 6 7 7 7 8 8 9 10 11 11 10 10 10 11 13 15 17 19 21 22 23 24 24 24 21 18 15
4 4 4 4 4 3 4 4 4 4 5 4 4 3 4 4 4 4 4 4 5 5 5 5 6 6 6 7 8 8 9 7 8 9 9 7 6 6 6 6 6 7 8 8 8 7 7 9 10 11 11 11 9 8 6 5 5 6 6 7 7 8 8 8 8 8 9 10 10 10 10 9 10 10 11 16 19 21 23 24 24 24 24 24 23 20
3 3 4 4 4 4 5 4 4 4 5 5 4 4 4 5 5 5 5 5 5 5 6 7 7 7 8 8 8 9 9 8 9 9 10 8 7 6 7 7 7 8 8 8 8 8 9 10 10 10 10 10 9 8 8 7 7 7 7 8 8 8 9 8 8 8 8 10 10 10 10 10 10 10 12 16 18 20 21 22 22 23 23 24 24 23
4 4 4 4 4 4 5 4 4 4 4 5 5 5 6 6 6 6 6 6 6 6 6 6 7 8 11 12 11 11 11 11 11 11 12 10 8 8 8 8 8 8 8 8 8 9 9 10 10 11 10 9 9 10 10 10 9 9 9 9 9 9 9 8 8 8 8 9 10 11 12 11 11 10 11 12 12 12 13 13 15 17 19 19 21 22
4 4 4 5 5 4 4 5 5 5 5 5 5 6 6 6 7 7 6 6 6 6 7 7 7 8 9 11 12 13 13 12 12 12 11 10 9 8 8 9 9 9 8 8 8 8 9 9 9 10 10 10 11 11 10 10 10 11 11 11 10 9 8 8 8 8 8 9 11 12 12 11 10 9 9 9 9 9 9 9 10 11 12 12 14 16
4 4 4 5 5 5 5 5 5 5 5 6 6 7 7 7 7 7 6 6 6 7 7 8 8 8 8 9 10 11 12 10 10 10 9 8 8 7 8 9 9 9 9 8 8 8 9 9 10 10 11 10 11 11 10 10 10 11 13 11 10 9 9 9 9 9 8 9 10 10 10 9 9 9 9 9 9 9 9 8 8 9 10 9 9 10
5 5 5 5 5 5 5 6 5 6 6 6 6 6 6 6 6 6 6 6 6 6 6 7 7 7 7 7 8 9 9 9 10 9 8 9 9 9 8 8 8 9 9 9 8 8 9 10 11 11 11 11 12 13 13 12 13 14 14 13 12 11 12 11 11 10 9 9 9 9 10 11 11 11 10 10 10 10 9 9 10 10 10 9 8 8
6 6 5 5 5 5 5 5 5 6 6 5 5 5 5 5 5 5 6 6 6 6 5 5 6 6 7 7 7 7 7 8 8 9 10 10 10 10 9 8 8 8 8 9 9 9 9 10 10 11 11 11 11 12 12 12 13 13 13 13 13 14 13 12 10 8 8 9 9 10 11 11 11 11 11 11 10 10 10 10 11 12 12 10 9 8
5 5 5 5 5 5 5 6 6 5 5 5 5 5 5 5 5 6 6 6 7 7 7 6 6 7 8 7 6 5 5 6 7 8 9 9 9 9 9 9 9 8 8 8 9 9 10 10 10 10 10 10 11 12 13 13 13 13 12 13 12 12 10 9 8 7 8 9 10 10 10 10 10 10 11 11 10 10 10 11 13 14 13 11 10 10
5 5 5 5 5 5 5 5 5 5 5 5 6 6 5 5 6 7 7 6 7 7 7 6 6 7 8 8 7 6 6 5 6 7 7 8 9 9 9 9 9 9 9 8 8 9 10 10 10 10 10 10 11 12 13 13 13 13 13 12 12 12 11 10 10 10 11 10 10 9 10 10 10 11 11 11 10 10 10 10 10 11 12 11 10 10
4 5 5 5 5 5 5 5 5 5 5 5 6 6 6 6 6 6 6 6 7 7 7 7 6 6 6 7 7 7 6 5 5 5 6 8 10 11 10 9 9 9 9 9 8 9 9 10 10 9 9 9 11 12 13 13 14 14 14 13 13 13 13 12 12 11 11 11 11 11 11 10 10 11 11 11 10 10 10 10 10 10 10 10 10 10
4 5 5 5 5 5 6 6 6 6 6 6 6 6 6 6 6 6 7 7 7 7 7 6 6 6 7 8 8 7 7 7 6 5 5 5 6 7 8 8 8 8 8 8 9 9 10 10 10 10 10 10 11 12 12 13 13 13 13 13 12 12 12 12 11 11 11 12 12 12 11 10 10 11 11 12 12 11 11 10 10 11 11 10 10 10
5 5 5 5 5 6 6 6 6 6 7 7 7 7 6 6 6 6 6 7 7 7 7 6 6 6 8 8 8 8 9 9 8 7 6 5 5 5 6 7 8 8 8 8 9 10 10 11 11 11 11 11 12 12 13 12 13 13 13 12 12 12 12 11 11 11 11 11 12 12 10 10 11 12 12 12 12 12 11 11 11 11 11 11 11 11
6 6 6 6 6 6 6 6 6 6 7 7 7 7 7 7 7 7 7 6 6 7 7 6 6 7 8 8 8 8 9 10 9 8 7 7 6 6 6 6 6 7 8 9 10 11 11 12 12 12 12 12 12 13 13 12 12 12 12 12 12 12 12 12 11 11 11 12 13 12 10 9 10 12 13 13 12 12 11 11 11 11 10 11 11 11
6 6 6 6 6 6 7 7 7 7 7 8 8 7 7 7 8 9 7 6 6 6 6 7 8 8 8 8 9 9 10 10 9 8 8 7 6 6 6 6 6 6 7 8 8 9 9 11 12 12 12 12 12 13 14 13 12 12 11 11 11 11 12 12 12 11 11 12 13 12 10 10 10 11 11 12 13 13 13 12 12 11 10 10 11 11
6 6 6 6 6 7 7 7 7 7 8 8 8 8 7 7 6 6 6 6 6 6 6 7 8 8 9 9 9 9 9 9 9 8 8 7 7 7 6 6 7 7 7 7 6 6 7 7 8 10 12 13 13 13 13 13 12 11 11 10 10 10 11 11 11 11 11 11 12 12 12 10 10 10 10 11 13 14 14 13 12 11 10 10 10 11
6 6 6 6 6 7 7 7 7 8 8 8 8 8 8 7 7 6 6 6 6 6 6 7 8 8 9 9 9 9 9 9 9 9 9 7 7 7 7 7 7 7 7 7 6 6 6 6 6 7 9 12 14 13 11 11 11 10 10 10 9 9 10 11 11 11 11 11 11 11 11 10 10 9 9 10 12 13 13 13 12 12 10 9 10 11
Wind_Direction
11 356 359 24 30 23 357 25 34 24 352 340 333 330 330 338 338 338 344 347 341 333 326 318 312 309 309 314 316 317 318 317 317 317 317 317 317 317 318 318 317 317 317 317 317 317 317 318 318 318 318 318 318 318 318 319 319 320 320 321 321 321 321 320 319 318 317 316 316 316 316 317 317 317 317 316 315 313 312 311 311 311 310 310 310 309
357 353 354 17 24 18 343 1 13 12 346 333 326 325 332 338 339 339 341 338 331 323 317 312 309 306 304 307 313 316 317 317 317 317 317 317 317 318 318 317 317 317 317 317 317 317 317 317 317 317 317 317 317 317 317 318 318 319 319 320 320 321 321 321 320 319 318 317 316 316 316 316 316 316 315 314 313 313 312 311 311 310 310 309 308 308
349 349 347 6 16 13 341 345 350 352 340 326 322 325 340 343 341 337 333 326 320 314 309 305 305 306 305 307 313 317 317 317 317 317 318 318 318 318 318 317 317 316 316 316 316 316 317 317 317 317 317 317 316 316 316 317 317 317 318 319 320 321 321 321 321 320 319 318 317 317 316 316 315 314 314 313 313 313 312 312 311 310 310 309 308 307
348 346 342 354 2 360 334 331 331 331 330 322 324 334 353 349 338 327 320 316 312 308 304 303 306 311 313 313 315 317 318 318 318 319 319 319 318 318 317 317 316 316 316 316 316 316 317 317 317 317 316 316 316 316 316 316 316 317 317 318 319 320 321 321 320 320 319 318 318 317 316 315 314 314 313 313 313 312 312 311 311 311 310 309 308 307
344 343 341 348 343 331 320 323 325 325 326 327 333 341 353 341 326 318 313 310 309 308 307 310 315 320 322 320 318 318 319 319 319 319 319 319 318 317 316 316 315 315 315 316 316 316 317 317 317 317 316 316 316 316 316 316 316 317 317 318 318 319 319 319 319 319 318 318 317 317 316 315 314 313 312 312 312 311 311 311 311 311 310 309 308 307
330 336 341 342 330 320 319 326 331 332 330 333 337 337 335 323 318 314 312 311 310 311 315 320 324 326 325 321 319 319 319 319 319 319 318 317 316 315 314 314 314 315 315 316 316 316 316 316 316 317 316 317 316 316 316 316 316 316 317 317 317 317 317 317 317 317 317 317 316 316 315 314 313 312 311 311 310 310 310 310 310 310 309 309 308 307
318 327 344 338 325 318 322 326 334 337 336 332 330 328 321 315 309 305 299 305 312 320 327 330 330 327 324 319 318 319 319 319 318 316 315 314 313 313 313 313 314 315 316 316 316 316 316 316 316 316 316 316 316 316 316 316 316 316 316 316 315 315 315 315 314 314 314 314 314 314 314 313 312 311 310 310 309 309 309 309 308 308 308 307 307 307
320 327 344 337 329 324 320 318 324 332 334 329 324 321 316 312 305 300 298 311 326 334 335 332 329 325 319 316 316 317 317 315 314 312 312 310 310 310 311 313 314 315 316 316 316 316 315 316 316 316 316 316 316 315 315 315 315 315 315 314 313 313 313 312 312 312 312 312 312 312 312 312 311 310 310 309 308 308 307 307 306 306 305 305 305 305
329 328 330 326 321 319 315 310 309 311 319 321 316 312 311 312 313 316 327 334 338 339 335 330 325 320 315 313 313 313 310 308 307 306 306 305 307 309 311 313 315 316 316 315 315 315 315 315 315 315 315 314 314 314 314 314 314 314 313 312 312 311 311 311 311 311 310 311 311 311 311 310 310 309 309 308 307 307 306 305 304 304 303 303 303 303
333 322 313 303 296 295 305 302 299 298 306 310 303 298 303 317 326 331 335 330 329 330 332 330 324 319 315 313 311 308 306 303 302 301 302 303 306 309 312 315 317 317 315 315 314 314 314 314 313 313 313 312 312 312 312 312 312 312 311 311 310 310 310 311 311 310 310 310 309 309 309 308 308 308 307 307 306 306 305 304 304 303 302 302 301 301
322 308 299 295 296 301 305 297 295 300 317 326 326 324 332 340 342 338 332 326 325 327 329 327 324 319 316 314 311 307 304 301 299 298 299 303 307 310 314 316 317 316 315 314 313 313 312 311 311 311 310 310 310 310 311 310 310 310 310 310 310 310 310 311 311 310 310 309 309 308 308 307 306 306 306 305 305 304 304 303 302 302 301 300 300 299
304 297 292 303 314 322 323 311 308 316 336 344 345 343 341 349 352 345 332 326 326 327 327 324 320 315 311 309 307 306 303 300 297 297 298 304 309 313 317 318 317 316 314 313 311 310 309 308 308 307 307 308 308 308 309 309 309 309 309 309 309 310 310 310 310 310 310 309 308 308 307 306 306 305 305 304 303 303 302 301 301 300 299 298 298 297
303 305 320 331 333 331 327 323 324 328 338 345 342 336 327 336 346 347 333 325 325 325 325 322 317 312 305 300 300 300 302 301 301 303 307 312 317 320 321 319 315 313 311 310 307 305 305 304 304 304 304 304 305 305 306 307 308 308 309 309 310 310 310 310 310 310 309 309 308 308 307 306 305 305 304 303 302 301 300 299 298 298 297 296 296 295
326 336 347 342 335 327 322 320 320 321 321 327 329 328 325 338 346 347 337 325 322 322 322 317 313 309 304 297 294 295 302 306 310 313 317 318 321 321 320 315 311 307 305 303 299 297 297 299 300 301 301 301 302 303 304 306 308 309 309 310 310 310 310 310 310 309 309 308 308 307 306 306 305 304 303 302 301 300 299 298 297 296 296 295 294 294
335 343 346 334 324 317 312 312 311 312 311 320 331 338 343 346 348 345 336 325 322 322 322 314 309 305 299 294 294 300 312 317 320 321 320 316 316 316 316 310 306 302 300 297 294 292 293 295 294 294 295 296 299 302 306 308 309 310 310 310 310 309 309 309 309 309 308 308 307 306 305 304 304 303 302 301 300 299 298 297 296 296 295 294 293 293
338 343 334 321 313 307 303 304 307 312 318 330 344 351 352 345 342 339 333 323 322 322 323 318 313 308 298 291 296 311 328 329 326 321 317 313 312 312 312 306 302 299 296 293 292 291 291 290 289 290 291 298 303 306 309 310 310 309 309 309 308 308 308 308 308 308 307 306 306 305 304 303 303 302 301 300 299 299 298 297 296 295 295 294 293 292
336 333 321 313 307 303 302 306 312 320 332 342 348 351 348 338 334 332 328 323 321 321 319 318 316 313 309 308 312 326 343 335 326 317 313 309 307 307 305 300 296 294 293 291 289 289 291 292 293 294 296 303 307 309 310 310 309 308 308 307 307 307 307 307 307 306 305 305 304 303 303 302 302 301 300 300 299 298 298 297 296 295 294 294 293 292
325 320 314 309 305 305 310 315 324 336 345 345 341 338 335 330 328 326 323 320 318 315 312 311 308 307 308 309 312 325 346 335 323 314 310 305 303 302 297 291 288 288 289 290 289 290 293 295 298 303 305 309 310 310 310 309 308 307 306 306 306 306 306 306 305 305 304 303 303 302 301 301 300 300 299 299 298 298 297 296 296 295 294 293 293 292
308 305 306 303 304 308 315 319 330 340 344 339 335 331 325 323 323 321 317 314 310 306 305 304 301 299 299 299 304 315 334 328 319 311 306 302 300 299 293 288 286 286 289 292 294 296 299 300 303 307 309 311 310 309 308 307 306 306 306 306 306 305 305 304 304 303 302 302 301 300 300 299 299 298 298 298 298 297 296 296 295 294 293 293 292 292
291 292 291 296 304 310 312 313 325 336 337 333 330 326 320 319 318 315 309 307 303 301 301 299 297 296 296 297 302 310 322 320 313 305 299 297 296 295 291 289 291 294 295 296 298 302 303 304 305 307 309 309 309 308 306 306 305 305 305 305 305 304 304 303 302 302 301 301 300 300 299 299 299 298 298 298 298 297 296 296 295 294 293 292 292 291
283 283 276 292 309 312 306 307 318 327 330 331 328 323 315 314 312 308 305 305 303 302 300 295 293 294 296 297 300 305 313 311 306 300 296 293 293 293 294 295 299 300 300 299 301 303 304 304 303 305 307 307 306 306 305 305 304 304 304 304 303 302 302 301 301 301 300 300 300 301 301 300 300 300 300 299 299 298 297 296 296 295 294 293 292 291
297 291 290 303 309 305 301 302 309 315 319 322 319 313 308 308 306 304 304 305 303 300 296 293 292 292 294 293 294 296 299 296 293 292 295 294 294 296 301 306 306 304 301 301 302 303 302 302 301 302 304 305 305 305 304 304 303 303 302 301 301 300 300 300 300 300 301 301 302 302 302 302 302 301 301 300 299 298 297 297 296 295 294 293 292 291
302 295 298 302 300 296 295 296 297 300 302 299 293 289 288 290 292 294 297 297 295 293 291 289 289 288 287 286 286 286 285 281 281 286 293 294 297 301 311 313 309 303 299 301 303 305 304 302 301 301 303 303 303 303 302 302 301 300 300 299 299 299 299 300 300 301 302 303 303 303 303 303 302 301 300 300 299 298 297 296 296 295 294 293 292 291
279 279 283 283 280 278 279 280 280 277 274 269 266 263 258 261 267 273 278 283 286 288 289 289 288 286 283 282 283 284 284 286 290 295 296 294 297 302 312 313 307 301 297 300 303 306 305 302 300 299 300 301 301 300 299 299 299 298 298 298 298 299 300 301 302 303 304 304 304 303 303 302 302 301 300 299 299 298 297 296 296 295 294 293 292 291
255 257 260 261 263 265 268 269 272 274 275 270 265 261 257 260 265 271 277 282 287 289 290 290 289 288 289 291 292 292 293 297 302 304 299 294 295 298 304 306 303 300 298 301 304 306 304 300 298 297 296 296 296 297 296 296 296 297 297 298 299 300 302 303 303 304 304 304 303 303 302 302 301 300 300 299 299 298 297 297 296 295 295 294 293 292
284 281 278 280 282 284 287 288 290 292 295 293 290 284 275 273 277 282 287 289 291 292 292 290 290 292 295 297 297 296 298 301 302 299 294 293 294 296 300 303 303 301 301 303 305 306 302 298 296 295 293 291 291 293 293 294 296 297 299 300 301 303 304 304 304 304 303 303 302 302 301 301 301 300 300 299 299 298 298 297 296 296 295 294 293 292
306 304 302 302 302 303 304 304 303 302 302 301 300 297 293 292 291 292 290 293 294 294 293 293 295 296 299 298 297 297 302 305 301 294 289 291 293 295 301 309 310 307 304 303 303 302 299 296 294 293 289 286 285 287 291 294 297 299 301 302 303 304 304 303 303 303 302 302 302 301 301 300 300 300 299 299 299 299 298 298 297 297 296 295 294 292
313 313 314 313 313 312 311 309 308 307 306 304 302 300 299 298 291 287 286 291 292 291 289 292 296 299 302 301 301 301 303 301 296 293 297 298 296 297 306 313 312 309 306 303 300 297 293 289 287 285 282 280 280 284 291 297 301 302 303 303 302 302 302 302 301 301 301 301 300 300 300 300 300 300 300 299 299 299 299 298 298 298 297 296 295 292
316 316 315 315 314 313 313 312 310 307 305 303 302 301 300 292 275 272 275 282 286 287 286 290 294 297 300 301 301 300 298 292 291 304 330 316 303 298 306 309 310 309 309 306 302 297 286 279 274 274 276 282 286 292 298 303 304 303 301 300 300 300 299 299 300 299 299 300 300 300 300 300 300 300 300 300 300 299 299 299 299 299 298 296 293 289
319 318 316 315 313 311 309 306 302 299 298 299 300 300 299 285 262 255 263 270 276 280 283 288 292 295 299 302 302 300 294 288 304 335 352 325 306 299 306 307 308 312 316 313 310 304 296 284 273 271 281 295 300 303 303 303 301 298 297 297 297 297 297 297 298 298 299 299 299 299 299 300 300 300 300 300 300 300 300 300 300 300 298 294 291 288
317 316 313 309 306 303 299 293 288 289 293 298 301 303 302 288 262 246 250 256 263 271 279 285 289 293 298 302 303 301 297 301 322 338 341 315 302 300 308 307 308 311 318 317 313 310 307 304 299 295 301 305 304 303 300 297 295 294 292 293 293 294 295 296 297 298 298 299 299 299 299 300 300 300 300 300 300 300 300 300 300 299 296 294 291 289
311 310 304 299 296 293 291 291 291 293 298 303 306 307 306 299 285 262 248 250 257 267 276 283 287 290 292 291 290 290 293 300 315 322 320 306 298 298 304 303 304 306 309 306 302 301 303 305 308 311 310 306 302 299 296 295 294 293 293 292 291 292 294 296 297 298 298 298 298 299 299 299 299 299 299 299 299 299 299 299 299 298 296 293 291 288
308 305 299 295 293 293 295 301 308 314 317 315 314 313 312 310 307 302 290 282 280 283 286 290 292 292 291 287 283 282 285 292 304 309 309 303 297 296 300 300 301 302 303 296 289 285 286 294 301 306 306 303 300 298 297 296 294 294 293 293 293 293 295 296 297 296 296 297 297 298 298 298 298 298 298 298 297 297 297 297 296 295 293 290 288 287
304 300 295 294 295 298 304 312 318 320 319 316 314 314 316 317 317 317 316 312 308 303 299 296 295 294 293 290 286 283 283 287 296 302 305 300 296 294 297 297 298 299 301 297 292 287 282 287 294 301 303 301 299 297 297 297 296 294 292 292 292 293 295 296 296 295 294 295 295 295 296 296 296 295 296 295 295 295 294 294 293 292 291 289 288 288
300 297 295 299 303 308 315 319 320 318 316 313 311 312 315 317 317 316 315 312 309 304 297 292 288 287 287 287 286 285 285 287 294 298 299 294 292 291 293 293 295 298 299 296 296 295 290 290 293 297 300 301 300 298 296 295 294 293 291 290 290 291 292 294 294 293 293 293 292 291 291 291 291 291 291 292 292 292 292 292 292 292 291 290 289 288
302 303 308 315 320 322 322 320 318 317 316 315 313 311 313 311 309 306 303 299 296 292 288 283 279 276 274 276 278 280 283 286 289 291 290 287 287 287 288 289 292 295 295 294 294 294 293 293 294 296 297 299 300 301 300 297 296 295 293 292 291 290 289 288 288 289 290 289 289 288 288 288 287 286 287 289 290 291 292 292 293 292 291 290 289 287
312 315 323 328 328 326 325 322 319 318 318 318 316 313 310 306 302 299 295 290 286 283 281 277 273 270 267 267 268 272 277 281 283 284 284 283 282 282 282 285 287 289 289 290 292 293 294 294 295 295 294 294 296 300 305 306 304 300 296 295 293 291 289 286 284 283 283 284 285 286 286 287 287 287 287 289 291 292 292 292 292 291 290 288 286 285
321 325 328 329 328 326 325 323 321 319 318 316 313 310 307 303 299 297 294 289 284 279 277 274 272 270 268 269 269 270 273 276 278 279 279 278 277 277 277 280 281 281 280 282 285 288 291 292 294 296 295 292 292 294 300 304 304 302 298 295 292 290 288 286 284 281 280 282 284 285 287 287 287 288 288 289 289 290 289 287 286 286 286 285 284 283
327 327 327 326 326 324 323 320 318 317 315 310 307 305 303 300 298 295 292 289 284 279 274 272 272 271 269 268 268 270 272 273 273 273 273 271 270 270 272 275 277 277 276 275 276 278 281 283 286 290 293 294 295 295 296 298 299 299 300 298 294 289 285 286 286 285 284 285 286 287 287 286 285 284 283 283 283 282 282 282 281 282 283 284 284 283
325 324 322 322 322 320 318 315 313 310 307 304 303 302 302 301 299 297 293 288 283 279 274 271 271 271 269 268 269 269 270 270 270 269 268 265 263 263 265 269 273 275 276 273 272 271 273 275 278 281 284 288 292 294 296 295 295 297 300 300 297 294 292 292 290 288 285 282 282 282 283 283 282 280 280 280 279 279 279 281 281 281 281 282 283 284
323 320 318 316 315 313 309 306 304 301 300 301 303 303 303 302 300 297 295 291 287 284 281 278 276 274 270 267 266 266 266 266 266 265 264 261 259 258 260 264 268 272 275 274 272 270 270 273 276 278 280 283 286 288 289 290 292 294 296 294 293 294 295 293 289 286 283 280 279 280 283 285 285 284 282 281 280 278 277 278 279 279 279 277 276 278
317 315 313 311 309 307 303 300 298 298 298 300 300 300 299 299 298 297 296 295 293 291 289 288 287 285 282 277 272 267 264 265 264 263 263 260 258 257 259 262 266 270 273 274 273 270 268 270 273 276 279 282 285 287 287 288 289 289 289 288 290 293 293 288 284 282 283 284 284 284 284 285 285 284 283 281 279 278 276 275 275 276 277 275 273 270
310 307 304 302 300 298 298 299 301 302 303 302 300 297 296 294 294 293 293 293 293 293 292 291 290 290 290 288 285 278 269 262 260 260 261 259 258 257 258 260 263 266 270 273 274 273 271 270 270 272 275 278 280 282 285 287 288 286 284 284 288 292 293 291 290 289 287 285 284 283 283 283 283 282 282 281 281 281 279 277 275 274 273 273 272 269
300 298 298 297 297 298 301 303 304 304 304 301 299 297 294 291 290 290 290 290 291 292 292 291 290 289 288 289 290 289 285 274 265 260 260 260 259 258 260 260 262 263 265 269 273 276 278 274 272 271 273 275 276 277 280 283 284 284 283 283 283 282 281 286 292 294 291 287 283 282 281 282 283 284 283 282 280 279 277 274 272 270 268 267 266 266
296 298 299 300 303 305 306 305 304 303 302 300 298 296 294 291 290 290 290 290 290 291 291 292 292 292 291 292 293 295 295 291 283 274 267 264 264 265 265 265 266 266 266 265 267 271 275 276 276 275 273 271 270 271 274 278 280 281 281 281 280 277 275 279 285 288 289 288 286 284 283 283 284 284 283 281 279 277 274 273 271 269 267 264 262 262
299 301 302 304 305 306 305 304 304 303 301 299 297 295 294 292 291 289 287 288 288 289 289 290 291 292 293 296 298 299 299 297 293 288 282 274 269 265 264 263 264 265 265 264 263 263 264 268 272 275 276 273 270 267 267 271 275 278 280 281 281 281 280 280 281 282 283 285 285 284 283 284 283 282 282 282 281 279 276 273 271 269 268 266 263 261
306 306 306 306 306 305 305 304 303 301 300 299 297 296 295 293 292 289 287 286 287 288 290 290 289 289 290 294 297 300 300 300 298 296 293 288 281 274 268 265 262 261 261 261 261 260 259 260 263 266 270 272 272 271 269 269 271 274 278 281 282 282 281 281 280 280 280 281 282 284 286 286 284 282 280 281 281 280 277 274 271 269 268 267 265 263
309 309 308 307 307 306 304 303 302 301 299 298 296 295 294 294 294 293 291 290 290 291 293 293 291 289 288 290 292 294 296 297 298 298 297 295 291 285 278 274 270 266 263 262 261 261 259 257 256 256 259 263 268 271 273 272 271 272 276 279 281 282 281 280 281 281 280 279 279 280 283 282 281 280 282 282 281 279 277 275 272 269 266 266 265 263
310 308 307 306 305 304 303 302 301 300 298 297 296 296 296 294 294 294 293 293 293 293 293 292 292 291 290 290 291 293 294 294 294 295 296 295 294 292 288 285 282 278 274 270 267 265 263 259 254 250 248 252 259 266 272 273 273 273 275 277 278 279 279 280 281 280 279 279 278 278 276 274 274 275 278 280 279 278 278 276 273 270 266 264 263 261
306 304 304 304 303 302 301 301 300 300 298 298 298 298 297 296 295 294 292 291 291 290 289 289 290 291 290 291 292 293 294 294 294 293 293 294 295 294 293 292 291 289 287 283 279 276 275 269 259 250 244 245 250 258 267 271 273 274 274 273 274 275 277 279 280 280 279 280 280 279 277 274 273 272 273 275 277 278 278 276 274 271 267 264 262 261
305 303 302 301 300 300 299 299 299 298 297 297 297 297 298 299 298 296 294 292 291 290 289 288 288 288 289 290 291 292 292 292 292 292 292 292 293 294 293 294 294 295 294 293 291 289 287 287 281 270 256 250 249 252 261 268 273 276 276 274 273 274 276 279 280 281 282 282 283 283 282 280 278 275 274 275 278 280 280 278 276 274 271 268 266 264